Home   Weather   Nagercoil   Past weeks

Flag for India Past Weather in Nagercoil, Tamil Nadu, India — Yesterday and Last 2 Weeks

Now
88 °F

Broken clouds.


Feels Like: 98 °F
Forecast: 75 / 90 °F
Wind: 14 mph from Northwest

Location: Thiruvananthapuram

Current Time: Dec 10, 2016 at 4:18:47 pm

Latest Report: Dec 10, 2016 at 3:30 pm


Visibility: 4 mi

Pressure: 29.71 "Hg

Humidity: 66%

Dew Point: 75 °F

Location of NagercoilLocation

Past Weather in Nagercoil — Graph

°F

Nagercoil Temperature Yesterday

Maximum temperature yesterday: 88 °F (at 11:00 am)
Minimum temperature yesterday: 79 °F (at 3:30 am)
Average temperature yesterday: 83 °F

High & Low Weather Summary for the Past Weeks

 TemperatureHumidityPressure
High90 °F (Nov 25, 3:30 pm)100% (Dec 5, 10:00 pm)29.95 "Hg (Dec 5, 10:00 pm)
Low77 °F (Nov 29, 5:30 am)51% (Dec 2, 8:30 am)29.71 "Hg (Dec 10, 3:30 pm)
Average83 °F78%29.84 "Hg
* Reported Nov 25 3:30 pm — Dec 10 3:30 pm, Nagercoil, Weather by CustomWeather, © 2016

Note: Actual official high and low records may vary slightly from our data, if they occured in-between our weather recording intervals... More about our weather records

Advertising

Nagercoil Weather History for the Previous 24 Hours

Scroll right to see more
 ConditionsComfort  
Time TempWeatherWind HumidityBarometerVisibility
3:30 pm
Sat, Dec 10
88 °FBroken clouds.14 mph66%29.71 "Hg4 mi
3:00 pm88 °FBroken clouds.13 mph66%29.74 "Hg4 mi
2:30 pm88 °FBroken clouds.14 mph66%29.74 "Hg4 mi
2:00 pm90 °FBroken clouds.15 mph63%29.77 "Hg4 mi
1:30 pm90 °FBroken clouds.15 mph63%29.77 "Hg4 mi
1:00 pm90 °FBroken clouds.14 mph63%29.77 "Hg4 mi
12:30 pm88 °FBroken clouds.13 mph70%29.80 "Hg4 mi
12:00 pm88 °FScattered clouds.12 mph66%29.80 "Hg4 mi
11:30 am88 °FScattered clouds.10 mph66%29.83 "Hg3 mi
11:00 am88 °FBroken clouds.9 mph66%29.83 "Hg3 mi
10:30 am86 °FScattered clouds.9 mph66%29.83 "Hg3 mi
10:00 am86 °FScattered clouds.9 mph70%29.83 "Hg3 mi
9:30 am84 °FScattered clouds.8 mph74%29.83 "Hg2 mi
9:00 am84 °FScattered clouds.8 mph74%29.86 "Hg2 mi
8:30 am81 °FScattered clouds.7 mph79%29.83 "Hg2 mi
8:00 am81 °FScattered clouds.8 mph84%29.83 "Hg1 mi
7:30 am81 °FScattered clouds.6 mph84%29.83 "Hg1 mi
7:00 am79 °FFog.6 mph89%29.83 "Hg1 mi
6:30 am79 °FFog.5 mph89%29.80 "Hg1 mi
6:00 am79 °FPassing clouds.5 mph89%29.80 "Hg2 mi
5:30 am79 °FPassing clouds.6 mph89%29.80 "Hg2 mi
5:00 am79 °FPassing clouds.5 mph89%29.77 "Hg2 mi
4:30 am79 °FPassing clouds.3 mph89%29.77 "Hg2 mi
4:00 am81 °FPassing clouds.3 mph84%29.77 "Hg2 mi
3:30 am81 °FPassing clouds.5 mph84%29.77 "Hg2 mi
3:00 am81 °FPassing clouds.5 mph84%29.77 "Hg2 mi
2:30 am81 °FPassing clouds.5 mph89%29.80 "Hg2 mi
1:30 am81 °FPassing clouds.3 mph89%29.80 "Hg2 mi
1:00 am81 °FPassing clouds.6 mph89%29.83 "Hg2 mi
12:30 am81 °FPassing clouds.6 mph89%29.83 "Hg2 mi
12:00 am81 °FPassing clouds.6 mph89%29.86 "Hg2 mi
11:30 pm
Fri, Dec 9
81 °FPassing clouds.3 mph84%29.86 "Hg2 mi
11:00 pm82 °FPassing clouds.5 mph84%29.86 "Hg2 mi
10:30 pm82 °FPassing clouds.6 mph84%29.86 "Hg2 mi
10:00 pm82 °FPassing clouds.3 mph84%29.86 "Hg2 mi
9:30 pm82 °FPassing clouds.3 mph84%29.86 "Hg2 mi
9:00 pm84 °FPassing clouds.6 mph79%29.86 "Hg2 mi
8:30 pm84 °FPassing clouds.8 mph79%29.83 "Hg3 mi
8:00 pm84 °FPassing clouds.8 mph79%29.83 "Hg3 mi
7:30 pm84 °FFog.9 mph79%29.80 "Hg3 mi
7:00 pm84 °FHaze.9 mph79%29.80 "Hg3 mi
6:30 pm84 °FScattered clouds.8 mph79%29.77 "Hg3 mi
6:00 pm84 °FPartly sunny.8 mph79%29.77 "Hg3 mi
5:30 pm86 °FPartly sunny.9 mph75%29.77 "Hg4 mi
5:00 pm86 °FPassing clouds.9 mph75%29.74 "Hg4 mi
4:30 pm86 °FPassing clouds.9 mph75%29.74 "Hg4 mi
4:00 pm88 °FPassing clouds.9 mph70%29.74 "Hg4 mi
Weather by CustomWeather, © 2016

See weather overviewHow to use our weather pages